星链-2610 (STARLINK-2610 )

导读 | 豆包AI

STARLINK-2610是美国SpaceX公司星链(Starlink)项目中的卫星,于2021年5月4日发射升空,属于星链星座组网的第一代卫星。星链项目旨在构建全球卫星互联网,为偏远地区提供高速低延迟宽带服务,该卫星运行在约550公里近地轨道,单颗第一代星链卫星重约260kg,是SpaceX实现万颗低轨卫星星座布局的组成单元,助力实现全球无缝覆盖的卫星互联网络。

基本信息
目录编号:
48376
目录名称:
STARLINK-2610
国际标识:
2021-038Z
轨道中心:
EARTH
卫星名称:
星链-2610
卫星全名:
星链-2610 (STARLINK-2610 )
卫星状态:
在轨 (已飞行1775 天)
发射日期:
2021-05-04 UTC
国别 :
美国 (US)
星等 :
--
轨道信息
数据来源 国际轨道数据
星历时间: 2026-03-14T07:57:14+0800
18小时前
查看轨道信息
半长轴: 6853.333km
偏心率: 0.0001343
轨道倾角: 53.159°
近地点辐角 92.450°
升交点赤经 327.787°
平近点角 267.665°
近地点: 474.275km
远地点: 476.117km
周期: 94.105分钟
每日圈数: 15.302066
详细信息
固有亮度:
5
最大亮度:
2.5
卫星平台:
Starlink V1.0
覆盖范围:
全球
运营商:
太空探索技术公司
运营商所在国:
美国
制造商(研发单位):
太空探索技术公司
制造商所在国:
美国
使用方式:
暂无
卫星简介
星链(Starlink)计划是由太空探索技术公司(SpaceX)提出的一个巨型低轨卫星互联网星座项目,计划在2019年至2024年间在太空搭建由约1.2万颗卫星组成的“星链”网络,其中1584颗将部署在地球上空550千米处的近地轨道,并从2020年开始工作。该卫星仍在工作。
2D轨道图
3D轨道图
轨道高度分析图
轨道倾角分析图
轨道综合分析图
查看轨道综合分析图